K4HG-2 Weather Reports


Display with metric or nautical units.
time (UTC)temp
F
wind
direction
speed
MPH
gust
MPH
rain 1hr
in
rain 24hr
in
rain mn
in
humidity
%
barometer
mb
20210618001716 84 73 3.0 12.0 0.00 0.00 0.00 70 1013.7
20210618001615 84 59 5.0 12.0 0.00 0.00 0.00 70 1013.7
20210618001516 84 8 5.0 12.0 0.00 0.00 0.00 70 1013.7
20210618001416 84 70 8.0 10.0 0.00 0.00 0.00 70 1013.7
20210618001316 84 22 9.0 10.0 0.00 0.00 0.00 70 1013.6
20210618001117 84 39 9.0 10.0 0.00 0.00 0.00 70 1013.5
20210618001015 84 61 4.0 10.0 0.00 0.00 0.00 71 1013.6
20210618000916 84 95 4.0 12.0 0.00 0.00 0.00 71 1013.6
20210618000716 84 39 8.0 12.0 0.00 0.00 0.00 70 1013.5
20210618000515 84 25 6.0 12.0 0.00 0.00 0.00 70 1013.5
20210618000416 84 52 4.0 12.0 0.00 0.00 0.00 70 1013.5
20210618000218 85 63 8.0 12.0 0.00 0.00 0.00 70 1013.4
20210618000017 84 66 4.0 12.0 0.00 0.00 0.00 70 1013.4
20210617235815 84 16 8.0 12.0 0.00 0.00 0.00 70 1013.4
20210617235716 84 42 5.0 12.0 0.00 0.00 0.00 70 1013.3
20210617235616 84 56 3.0 12.0 0.00 0.00 0.00 70 1013.4
20210617235515 84 37 7.0 12.0 0.00 0.00 0.00 70 1013.3
20210617235316 84 59 7.0 12.0 0.00 0.00 0.00 70 1013.3
20210617235016 84 56 4.0 12.0 0.00 0.00 0.00 70 1013.3
20210617234816 84 92 2.0 12.0 0.00 0.00 0.00 70 1013.2
20210617234716 84 91 7.0 12.0 0.00 0.00 0.00 70 1013.2
20210617234116 84 61 4.0 10.0 0.00 0.00 0.00 71 1013.1
20210617233515 85 4 3.0 12.0 0.00 0.00 0.00 71 1013.1
20210617233216 84 61 12.0 12.0 0.00 0.00 0.00 70 1013.1
20210617233115 84 53 5.0 12.0 0.00 0.00 0.00 70 1013.1
20210617233016 84 7 2.0 12.0 0.00 0.00 0.00 70 1013.1
20210617232916 84 67 5.0 12.0 0.00 0.00 0.00 70 1013.0
20210617232815 85 59 10.0 12.0 0.00 0.00 0.00 70 1013.0
20210617232617 84 26 6.0 12.0 0.00 0.00 0.00 71 1013.0
20210617232415 85 42 6.0 16.0 0.00 0.00 0.00 71 1013.0
20210617232316 85 81 1.0 16.0 0.00 0.00 0.00 71 1012.9
20210617232116 84 54 8.0 16.0 0.00 0.00 0.00 71 1013.0
20210617232016 84 29 2.0 16.0 0.00 0.00 0.00 71 1012.9
20210617231816 85 63 6.0 11.0 0.00 0.00 0.00 71 1012.9
20210617231715 85 66 4.0 11.0 0.00 0.00 0.00 71 1012.9
20210617231617 85 47 7.0 11.0 0.00 0.00 0.00 71 1012.9
20210617231416 84 97 5.0 12.0 0.00 0.00 0.00 72 1012.9
20210617231316 85 71 2.0 12.0 0.00 0.00 0.00 72 1013.0
20210617231215 85 54 6.0 12.0 0.00 0.00 0.00 72 1013.0
20210617231116 85 54 3.0 12.0 0.00 0.00 0.00 72 1013.0
20210617230917 85 26 10.0 13.0 0.00 0.00 0.00 71 1013.0
20210617230716 85 75 4.0 13.0 0.00 0.00 0.00 71 1013.0
20210617230515 85 39 8.0 13.0 0.00 0.00 0.00 71 1013.1
20210617230417 85 81 8.0 12.0 0.00 0.00 0.00 71 1013.0
20210617230315 85 39 8.0 12.0 0.00 0.00 0.00 71 1013.1
20210617230216 85 8 8.0 12.0 0.00 0.00 0.00 71 1013.1
20210617230016 85 56 9.0 12.0 0.00 0.00 0.00 71 1013.1
20210617225916 85 37 9.0 10.0 0.00 0.00 0.00 70 1013.0
20210617225616 84 75 6.0 10.0 0.00 0.00 0.00 70 1013.1
20210617225516 85 66 7.0 10.0 0.00 0.00 0.00 70 1013.1
20210617225116 85 75 4.0 11.0 0.00 0.00 0.00 70 1013.1
20210617225015 85 37 4.0 11.0 0.00 0.00 0.00 70 1013.1
20210617224916 85 43 3.0 11.0 0.00 0.00 0.00 70 1013.1
20210617224816 85 52 6.0 11.0 0.00 0.00 0.00 70 1013.1
20210617224516 85 53 8.0 11.0 0.00 0.00 0.00 70 1013.1
20210617224315 85 47 8.0 9.0 0.00 0.00 0.00 69 1013.1
20210617224116 85 60 4.0 9.0 0.00 0.00 0.00 69 1013.2
20210617223616 85 71 5.0 9.0 0.00 0.00 0.00 70 1013.1
20210617223217 85 60 5.0 8.0 0.00 0.00 0.00 69 1013.2
20210617223117 85 57 5.0 8.0 0.00 0.00 0.00 69 1013.1
20210617222915 85 42 0.0 10.0 0.00 0.00 0.00 69 1013.2
20210617222615 85 59 6.0 10.0 0.00 0.00 0.00 70 1013.2
20210617222416 85 74 4.0 9.0 0.00 0.00 0.00 70 1013.2
20210617222216 85 73 4.0 9.0 0.00 0.00 0.00 69 1013.2
20210617222016 85 57 2.0 9.0 0.00 0.00 0.00 70 1013.1
20210617221915 85 54 4.0 12.0 0.00 0.00 0.00 69 1013.2
20210617221816 85 60 8.0 12.0 0.00 0.00 0.00 70 1013.2
20210617221616 85 71 3.0 12.0 0.00 0.00 0.00 70 1013.2
20210617221316 85 68 7.0 9.0 0.00 0.00 0.00 70 1013.2
20210617221215 85 59 6.0 9.0 0.00 0.00 0.00 70 1013.2
20210617220716 85 59 6.0 9.0 0.00 0.00 0.00 70 1013.2
20210617220516 85 66 6.0 9.0 0.00 0.00 0.00 70 1013.2
20210617220116 85 26 4.0 11.0 0.00 0.00 0.00 68 1013.2
20210617220017 85 47 7.0 11.0 0.00 0.00 0.00 69 1013.2
20210617215817 85 73 0.0 7.0 0.00 0.00 0.00 69 1013.3
20210617215715 85 78 3.0 7.0 0.00 0.00 0.00 69 1013.2
20210617215417 85 104 2.0 10.0 0.00 0.00 0.00 68 1013.3
20210617215315 85 77 3.0 10.0 0.00 0.00 0.00 68 1013.3
20210617215215 85 75 4.0 10.0 0.00 0.00 0.00 68 1013.3
20210617215116 85 61 4.0 10.0 0.00 0.00 0.00 68 1013.3
20210617214915 85 78 2.0 9.0 0.00 0.00 0.00 68 1013.4
20210617214816 85 70 4.0 9.0 0.00 0.00 0.00 68 1013.3
20210617214615 85 99 6.0 9.0 0.00 0.00 0.00 68 1013.4
20210617214115 85 60 5.0 8.0 0.00 0.00 0.00 69 1013.3
20210617214016 85 68 2.0 8.0 0.00 0.00 0.00 69 1013.2
20210617213915 85 64 2.0 9.0 0.00 0.00 0.00 69 1013.2
20210617213817 85 64 4.0 9.0 0.00 0.00 0.00 68 1013.2
20210617213715 85 54 4.0 9.0 0.00 0.00 0.00 68 1013.3
20210617213616 85 75 4.0 9.0 0.00 0.00 0.00 68 1013.3
20210617213316 85 54 8.0 9.0 0.00 0.00 0.00 68 1013.4
20210617213216 85 60 8.0 9.0 0.00 0.00 0.00 68 1013.3
20210617212515 85 75 6.0 9.0 0.00 0.00 0.00 68 1013.4
20210617212316 85 49 4.0 9.0 0.00 0.00 0.00 68 1013.4
20210617212116 85 68 3.0 9.0 0.00 0.00 0.00 68 1013.4
20210617211917 86 46 4.0 7.0 0.00 0.00 0.00 68 1013.4
20210617211616 85 61 3.0 7.0 0.00 0.00 0.00 68 1013.4
20210617211515 85 64 6.0 7.0 0.00 0.00 0.00 68 1013.4
20210617211116 85 66 4.0 8.0 0.00 0.00 0.00 68 1013.4
20210617211016 85 61 5.0 8.0 0.00 0.00 0.00 68 1013.4
20210617210915 85 78 4.0 9.0 0.00 0.00 0.00 68 1013.4
20210617210315 85 63 4.0 6.0 0.00 0.00 0.00 67 1013.3
20210617205916 85 70 3.0 9.0 0.00 0.00 0.00 68 1013.3
20210617205816 85 71 4.0 9.0 0.00 0.00 0.00 68 1013.3
20210617205716 85 57 4.0 9.0 0.00 0.00 0.00 68 1013.3
20210617205617 85 52 2.0 9.0 0.00 0.00 0.00 68 1013.3
20210617205417 85 28 4.0 7.0 0.00 0.00 0.00 68 1013.3
20210617205215 85 45 5.0 7.0 0.00 0.00 0.00 67 1013.2
20210617205116 86 80 3.0 7.0 0.00 0.00 0.00 67 1013.3
20210617205015 85 68 6.0 7.0 0.00 0.00 0.00 67 1013.2
20210617204916 86 52 5.0 10.0 0.00 0.00 0.00 68 1013.2
20210617204716 85 45 2.0 10.0 0.00 0.00 0.00 68 1013.2
20210617204416 85 71 5.0 8.0 0.00 0.00 0.00 67 1013.2
20210617204315 85 60 8.0 8.0 0.00 0.00 0.00 68 1013.2
20210617204217 85 47 5.0 8.0 0.00 0.00 0.00 67 1013.2
20210617204115 85 57 5.0 8.0 0.00 0.00 0.00 67 1013.2
20210617204016 85 71 2.0 8.0 0.00 0.00 0.00 67 1013.3
20210617203716 85 60 3.0 9.0 0.00 0.00 0.00 67 1013.2
20210617203616 86 73 2.0 9.0 0.00 0.00 0.00 67 1013.2
20210617203516 85 87 5.0 9.0 0.00 0.00 0.00 67 1013.2
20210617203115 86 50 5.0 9.0 0.00 0.00 0.00 67 1013.2
20210617202916 86 70 4.0 7.0 0.00 0.00 0.00 67 1013.2
20210617202616 85 81 6.0 7.0 0.00 0.00 0.00 67 1013.2
20210617202415 85 81 2.0 8.0 0.00 0.00 0.00 67 1013.2
20210617202116 85 54 4.0 8.0 0.00 0.00 0.00 68 1013.2
20210617202015 86 60 3.0 8.0 0.00 0.00 0.00 68 1013.2
20210617201916 85 88 3.0 9.0 0.00 0.00 0.00 67 1013.2
20210617201816 85 87 6.0 9.0 0.00 0.00 0.00 67 1013.2
20210617201716 85 70 2.0 9.0 0.00 0.00 0.00 67 1013.2
20210617201516 86 63 1.0 9.0 0.00 0.00 0.00 68 1013.2
20210617201415 85 66 7.0 9.0 0.00 0.00 0.00 68 1013.2
20210617201215 85 59 3.0 9.0 0.00 0.00 0.00 68 1013.2
20210617201015 86 63 3.0 9.0 0.00 0.00 0.00 67 1013.1
20210617200817 85 63 6.0 9.0 0.00 0.00 0.00 67 1013.1
20210617200715 86 66 4.0 9.0 0.00 0.00 0.00 67 1013.1
20210617200416 86 64 3.0 10.0 0.00 0.00 0.00 67 1013.2
20210617200316 86 64 4.0 10.0 0.00 0.00 0.00 67 1013.2
20210617195916 86 59 1.0 10.0 0.00 0.00 0.00 67 1013.2
20210617195715 86 37 3.0 10.0 0.00 0.00 0.00 67 1013.2
20210617195616 86 59 4.0 10.0 0.00 0.00 0.00 66 1013.2
20210617195515 86 63 4.0 10.0 0.00 0.00 0.00 67 1013.2
20210617195316 86 67 4.0 9.0 0.00 0.00 0.00 67 1013.2
20210617195016 86 59 9.0 9.0 0.00 0.00 0.00 67 1013.2
20210617194917 86 64 3.0 9.0 0.00 0.00 0.00 66 1013.2
20210617194816 86 90 2.0 9.0 0.00 0.00 0.00 67 1013.2
20210617194616 86 66 7.0 9.0 0.00 0.00 0.00 66 1013.2
20210617194515 86 37 7.0 9.0 0.00 0.00 0.00 67 1013.2
20210617194416 86 64 5.0 8.0 0.00 0.00 0.00 67 1013.3
20210617194315 86 50 4.0 8.0 0.00 0.00 0.00 67 1013.3
20210617194216 86 39 6.0 8.0 0.00 0.00 0.00 66 1013.3
20210617193917 86 73 3.0 10.0 0.00 0.00 0.00 68 1013.3
20210617193815 86 59 3.0 10.0 0.00 0.00 0.00 68 1013.3
20210617193516 86 67 3.0 10.0 0.00 0.00 0.00 67 1013.3
20210617193316 86 95 6.0 9.0 0.00 0.00 0.00 67 1013.3
20210617193215 86 88 5.0 9.0 0.00 0.00 0.00 67 1013.3
20210617193116 86 59 6.0 9.0 0.00 0.00 0.00 67 1013.3
20210617193017 85 42 5.0 9.0 0.00 0.00 0.00 66 1013.4
20210617192816 86 50 6.0 8.0 0.00 0.00 0.00 66 1013.4
20210617192716 86 45 6.0 8.0 0.00 0.00 0.00 67 1013.3
20210617192315 86 75 4.0 7.0 0.00 0.00 0.00 67 1013.4
20210617192116 85 47 6.0 7.0 0.00 0.00 0.00 67 1013.4
20210617192016 85 64 1.0 7.0 0.00 0.00 0.00 67 1013.4
20210617191616 86 49 5.0 12.0 0.00 0.00 0.00 66 1013.4
20210617191516 86 64 6.0 12.0 0.00 0.00 0.00 67 1013.4
20210617191016 85 45 5.0 9.0 0.00 0.00 0.00 67 1013.5
20210617190816 86 71 3.0 7.0 0.00 0.00 0.00 67 1013.5
20210617190615 86 61 3.0 7.0 0.00 0.00 0.00 66 1013.5
20210617190116 86 70 4.0 9.0 0.00 0.00 0.00 66 1013.5
20210617190016 86 60 5.0 9.0 0.00 0.00 0.00 66 1013.6
20210617185916 86 101 7.0 8.0 0.00 0.00 0.00 66 1013.5
20210617185616 86 116 0.0 8.0 0.00 0.00 0.00 66 1013.6
20210617185316 86 46 3.0 10.0 0.00 0.00 0.00 67 1013.6
20210617185216 86 53 1.0 10.0 0.00 0.00 0.00 67 1013.6
20210617185116 86 68 5.0 10.0 0.00 0.00 0.00 67 1013.6
20210617184816 86 84 4.0 11.0 0.00 0.00 0.00 67 1013.6
20210617184715 86 52 3.0 11.0 0.00 0.00 0.00 67 1013.6
20210617184616 86 120 1.0 11.0 0.00 0.00 0.00 67 1013.6
20210617184316 86 70 2.0 9.0 0.00 0.00 0.00 67 1013.6
20210617184216 86 68 5.0 9.0 0.00 0.00 0.00 67 1013.7
20210617183817 86 94 5.0 8.0 0.00 0.00 0.00 67 1013.6
20210617183515 86 30 0.0 8.0 0.00 0.00 0.00 66 1013.7
20210617183316 86 97 1.0 8.0 0.00 0.00 0.00 67 1013.7
20210617183116 86 126 3.0 8.0 0.00 0.00 0.00 67 1013.8
20210617183015 86 94 5.0 8.0 0.00 0.00 0.00 67 1013.8
20210617182916 86 57 5.0 8.0 0.00 0.00 0.00 67 1013.8
20210617182417 86 71 5.0 7.0 0.00 0.00 0.00 66 1013.9
20210617182216 86 50 3.0 7.0 0.00 0.00 0.00 67 1013.9
20210617182016 86 68 1.0 7.0 0.00 0.00 0.00 66 1013.8
20210617181916 86 22 6.0 9.0 0.00 0.00 0.00 67 1013.8
20210617181716 86 66 3.0 9.0 0.00 0.00 0.00 66 1013.9
20210617181616 86 63 6.0 9.0 0.00 0.00 0.00 67 1013.9
20210617181416 86 49 7.0 7.0 0.00 0.00 0.00 66 1013.9
20210617181216 86 60 8.0 7.0 0.00 0.00 0.00 67 1013.9
20210617181117 86 52 2.0 7.0 0.00 0.00 0.00 66 1014.0
20210617181016 86 61 3.0 7.0 0.00 0.00 0.00 66 1014.0
20210617180615 86 68 3.0 10.0 0.00 0.00 0.00 66 1014.0
20210617180516 86 77 2.0 10.0 0.00 0.00 0.00 66 1014.0
20210617180416 86 85 3.0 8.0 0.00 0.00 0.00 66 1014.0
20210617180016 86 49 5.0 8.0 0.00 0.00 0.00 66 1014.1
20210617175716 87 46 3.0 9.0 0.00 0.00 0.00 66 1014.1
20210617175615 86 94 5.0 9.0 0.00 0.00 0.00 66 1014.1
20210617175315 86 87 3.0 8.0 0.00 0.00 0.00 66 1014.1
20210617175016 86 57 5.0 8.0 0.00 0.00 0.00 66 1014.1
20210617174816 86 49 6.0 11.0 0.00 0.00 0.00 66 1014.1
20210617174715 86 23 4.0 11.0 0.00 0.00 0.00 66 1014.1
20210617174616 86 59 4.0 11.0 0.00 0.00 0.00 66 1014.1
20210617174216 86 40 3.0 10.0 0.00 0.00 0.00 65 1014.1
20210617174115 86 57 7.0 10.0 0.00 0.00 0.00 66 1014.1
20210617174016 86 63 3.0 10.0 0.00 0.00 0.00 66 1014.1
20210617173915 86 71 2.0 9.0 0.00 0.00 0.00 66 1014.2
20210617173515 86 77 5.0 9.0 0.00 0.00 0.00 66 1014.2
20210617173315 86 39 6.0 10.0 0.00 0.00 0.00 66 1014.1
20210617173216 86 49 6.0 10.0 0.00 0.00 0.00 66 1014.2
20210617173115 86 77 5.0 10.0 0.00 0.00 0.00 66 1014.2
20210617172717 86 54 3.0 9.0 0.00 0.00 0.00 65 1014.2
20210617172415 86 92 4.0 11.0 0.00 0.00 0.00 66 1014.2
20210617172215 86 47 4.0 11.0 0.00 0.00 0.00 67 1014.2
20210617172116 86 73 6.0 11.0 0.00 0.00 0.00 66 1014.3
20210617172015 86 52 8.0 11.0 0.00 0.00 0.00 66 1014.3
20210617171517 86 59 8.0 10.0 0.00 0.00 0.00 66 1014.3
20210617171316 86 56 6.0 12.0 0.00 0.00 0.00 66 1014.4
20210617171115 86 64 5.0 12.0 0.00 0.00 0.00 67 1014.3
20210617171016 86 75 3.0 12.0 0.00 0.00 0.00 67 1014.4
20210617170915 86 35 5.0 11.0 0.00 0.00 0.00 67 1014.4
20210617170515 86 67 4.0 11.0 0.00 0.00 0.00 66 1014.3
20210617170416 86 99 6.0 8.0 0.00 0.00 0.00 67 1014.4
20210617170316 86 11 3.0 8.0 0.00 0.00 0.00 67 1014.3
20210617165815 86 54 5.0 10.0 0.00 0.00 0.00 67 1014.4
20210617165716 86 64 5.0 10.0 0.00 0.00 0.00 67 1014.4
20210617165615 86 36 3.0 10.0 0.00 0.00 0.00 67 1014.4
20210617165415 86 84 3.0 11.0 0.00 0.00 0.00 67 1014.4
20210617165316 86 78 4.0 11.0 0.00 0.00 0.00 67 1014.3
20210617165216 86 56 7.0 11.0 0.00 0.00 0.00 68 1014.4
20210617165016 86 53 5.0 11.0 0.00 0.00 0.00 67 1014.4
20210617164517 86 54 4.0 10.0 0.00 0.00 0.00 67 1014.5
20210617164216 85 92 8.0 10.0 0.00 0.00 0.00 68 1014.5
20210617163817 85 77 3.0 11.0 0.00 0.00 0.00 67 1014.5
20210617163616 86 84 4.0 11.0 0.00 0.00 0.00 67 1014.5
20210617163416 86 59 3.0 9.0 0.00 0.00 0.00 67 1014.6
20210617163315 85 94 2.0 9.0 0.00 0.00 0.00 67 1014.5
20210617163016 86 61 3.0 9.0 0.00 0.00 0.00 68 1014.6
20210617162915 86 73 3.0 8.0 0.00 0.00 0.00 68 1014.6
20210617162816 86 21 5.0 8.0 0.00 0.00 0.00 68 1014.6
20210617162715 85 53 5.0 8.0 0.00 0.00 0.00 67 1014.6
20210617162616 86 59 1.0 8.0 0.00 0.00 0.00 67 1014.6
20210617162115 86 53 2.0 7.0 0.00 0.00 0.00 67 1014.6
20210617161515 85 54 6.0 10.0 0.00 0.00 0.00 68 1014.6
20210617161416 85 28 5.0 10.0 0.00 0.00 0.00 68 1014.6
20210617161116 85 70 6.0 10.0 0.00 0.00 0.00 68 1014.6
20210617161017 85 77 4.0 10.0 0.00 0.00 0.00 68 1014.6
20210617160816 85 77 3.0 9.0 0.00 0.00 0.00 68 1014.5
20210617160715 85 29 8.0 9.0 0.00 0.00 0.00 68 1014.5
20210617160516 85 68 3.0 9.0 0.00 0.00 0.00 68 1014.6
20210617160216 85 87 4.0 8.0 0.00 0.00 0.00 69 1014.6
20210617160016 85 64 2.0 8.0 0.00 0.00 0.00 68 1014.6
20210617155916 85 57 3.0 9.0 0.00 0.00 0.00 68 1014.6
20210617155816 85 53 6.0 9.0 0.00 0.00 0.00 68 1014.6
20210617155717 85 60 4.0 9.0 0.00 0.00 0.00 68 1014.6
20210617155615 85 14 6.0 9.0 0.00 0.00 0.00 68 1014.6
20210617155415 85 32 4.0 9.0 0.00 0.00 0.00 69 1014.6
20210617155217 85 60 3.0 9.0 0.00 0.00 0.00 69 1014.6
20210617155115 85 54 3.0 9.0 0.00 0.00 0.00 69 1014.6
20210617154816 84 75 5.0 9.0 0.00 0.00 0.00 68 1014.6
20210617154516 85 63 5.0 9.0 0.00 0.00 0.00 68 1014.6
20210617154116 85 46 5.0 11.0 0.00 0.00 0.00 68 1014.7
20210617153815 84 42 10.0 9.0 0.00 0.00 0.00 69 1014.7
20210617153716 84 56 8.0 9.0 0.00 0.00 0.00 69 1014.7
20210617153616 84 66 6.0 9.0 0.00 0.00 0.00 69 1014.7
20210617153516 85 47 2.0 9.0 0.00 0.00 0.00 69 1014.8
20210617153316 84 59 2.0 9.0 0.00 0.00 0.00 69 1014.7
20210617153115 84 52 7.0 9.0 0.00 0.00 0.00 69 1014.8
20210617153016 84 87 2.0 9.0 0.00 0.00 0.00 69 1014.8
20210617152617 84 73 4.0 11.0 0.00 0.00 0.00 69 1014.7
20210617152516 84 70 5.0 11.0 0.00 0.00 0.00 69 1014.8
20210617152016 84 47 2.0 8.0 0.00 0.00 0.00 70 1014.7
20210617151816 84 50 6.0 11.0 0.00 0.00 0.00 70 1014.7
20210617151515 84 49 3.0 11.0 0.00 0.00 0.00 70 1014.7
20210617151417 84 59 6.0 8.0 0.00 0.00 0.00 70 1014.7
20210617151215 84 52 5.0 8.0 0.00 0.00 0.00 70 1014.7
20210617150815 84 66 5.0 9.0 0.00 0.00 0.00 70 1014.7
20210617150716 84 42 5.0 9.0 0.00 0.00 0.00 70 1014.7
20210617150615 84 82 6.0 9.0 0.00 0.00 0.00 70 1014.7
20210617150416 84 81 2.0 11.0 0.00 0.00 0.00 71 1014.7
20210617150315 84 54 6.0 11.0 0.00 0.00 0.00 71 1014.7
20210617145716 84 57 7.0 8.0 0.00 0.00 0.00 70 1014.7
20210617145316 84 85 5.0 8.0 0.00 0.00 0.00 70 1014.7
20210617145116 84 92 6.0 8.0 0.00 0.00 0.00 70 1014.7
20210617145016 84 70 3.0 8.0 0.00 0.00 0.00 70 1014.7
20210617144716 84 80 1.0 10.0 0.00 0.00 0.00 71 1014.7
20210617144515 83 68 5.0 10.0 0.00 0.00 0.00 71 1014.8
20210617144316 84 68 2.0 9.0 0.00 0.00 0.00 70 1014.8
20210617144116 84 66 5.0 9.0 0.00 0.00 0.00 70 1014.7
20210617144016 84 70 3.0 9.0 0.00 0.00 0.00 70 1014.7
20210617143915 84 77 4.0 8.0 0.00 0.00 0.00 70 1014.7
20210617143416 84 64 3.0 8.0 0.00 0.00 0.00 71 1014.7
20210617143217 84 47 6.0 8.0 0.00 0.00 0.00 70 1014.6
20210617143116 84 101 2.0 8.0 0.00 0.00 0.00 70 1014.6
20210617142916 84 52 2.0 8.0 0.00 0.00 0.00 70 1014.6
20210617142815 84 61 5.0 8.0 0.00 0.00 0.00 70 1014.6
20210617142716 84 45 2.0 8.0 0.00 0.00 0.00 70 1014.6
20210617142415 84 56 5.0 8.0 0.00 0.00 0.00 70 1014.5
20210617142317 84 53 3.0 8.0 0.00 0.00 0.00 70 1014.6
20210617142216 84 47 4.0 8.0 0.00 0.00 0.00 70 1014.6
20210617142015 84 59 5.0 8.0 0.00 0.00 0.00 70 1014.6
20210617141816 84 60 5.0 11.0 0.00 0.00 0.00 70 1014.5
20210617141616 83 77 2.0 11.0 0.00 0.00 0.00 70 1014.6
20210617141517 83 68 4.0 11.0 0.00 0.00 0.00 69 1014.5
20210617141317 84 68 7.0 9.0 0.00 0.00 0.00 69 1014.5
20210617141216 83 82 6.0 9.0 0.00 0.00 0.00 70 1014.5
20210617140815 84 60 5.0 11.0 0.00 0.00 0.00 68 1014.5
20210617140716 83 39 4.0 11.0 0.00 0.00 0.00 68 1014.6
20210617140615 83 67 4.0 11.0 0.00 0.00 0.00 69 1014.6
20210617140517 83 70 6.0 11.0 0.00 0.00 0.00 69 1014.5
20210617140215 83 57 5.0 9.0 0.00 0.00 0.00 68 1014.6
20210617135916 83 68 4.0 11.0 0.00 0.00 0.00 69 1014.5
20210617135616 83 43 3.0 11.0 0.00 0.00 0.00 68 1014.5
20210617135515 83 92 6.0 11.0 0.00 0.00 0.00 68 1014.5
20210617135416 83 74 3.0 11.0 0.00 0.00 0.00 68 1014.5
20210617135315 83 45 5.0 11.0 0.00 0.00 0.00 68 1014.5
20210617135216 83 30 6.0 11.0 0.00 0.00 0.00 68 1014.5
20210617135115 83 68 4.0 11.0 0.00 0.00 0.00 68 1014.5
20210617135016 83 73 4.0 11.0 0.00 0.00 0.00 68 1014.5
20210617134916 83 61 6.0 9.0 0.00 0.00 0.00 68 1014.5
20210617134716 83 42 4.0 9.0 0.00 0.00 0.00 67 1014.5
20210617134617 83 71 4.0 9.0 0.00 0.00 0.00 67 1014.5
20210617134516 83 50 4.0 9.0 0.00 0.00 0.00 67 1014.4
20210617134117 83 57 2.0 9.0 0.00 0.00 0.00 67 1014.5
20210617133915 83 81 2.0 8.0 0.00 0.00 0.00 67 1014.5
20210617133717 83 81 5.0 8.0 0.00 0.00 0.00 67 1014.5
20210617133515 83 67 4.0 8.0 0.00 0.00 0.00 67 1014.5
20210617133315 83 57 2.0 9.0 0.00 0.00 0.00 66 1014.5
20210617133116 83 53 6.0 9.0 0.00 0.00 0.00 66 1014.5
20210617132915 83 56 7.0 9.0 0.00 0.00 0.00 66 1014.5
20210617132816 83 67 3.0 9.0 0.00 0.00 0.00 66 1014.5
20210617132715 83 49 2.0 9.0 0.00 0.00 0.00 66 1014.4
20210617132616 83 54 4.0 9.0 0.00 0.00 0.00 66 1014.4
20210617132516 83 40 4.0 9.0 0.00 0.00 0.00 66 1014.4
20210617132416 83 66 5.0 10.0 0.00 0.00 0.00 66 1014.4
20210617132315 83 54 7.0 10.0 0.00 0.00 0.00 66 1014.4
20210617132216 82 64 4.0 10.0 0.00 0.00 0.00 66 1014.4
20210617132115 83 22 2.0 10.0 0.00 0.00 0.00 66 1014.4
20210617131815 82 47 4.0 9.0 0.00 0.00 0.00 66 1014.4
20210617131316 82 63 4.0 6.0 0.00 0.00 0.00 67 1014.3
20210617131216 82 87 5.0 6.0 0.00 0.00 0.00 68 1014.3
20210617131115 82 99 0.0 6.0 0.00 0.00 0.00 68 1014.3
20210617130816 82 77 3.0 7.0 0.00 0.00 0.00 68 1014.3
20210617130616 82 63 4.0 7.0 0.00 0.00 0.00 68 1014.4
20210617130516 82 56 5.0 7.0 0.00 0.00 0.00 68 1014.4
20210617130416 82 59 3.0 7.0 0.00 0.00 0.00 68 1014.4
20210617130317 82 85 0.0 7.0 0.00 0.00 0.00 68 1014.4
20210617130216 82 67 3.0 7.0 0.00 0.00 0.00 68 1014.3
20210617130016 82 54 5.0 7.0 0.00 0.00 0.00 69 1014.3
20210617125615 81 80 0.0 5.0 0.00 0.00 0.00 69 1014.3
20210617125516 82 80 0.0 5.0 0.00 0.00 0.00 69 1014.3
20210617125417 81 80 0.0 6.0 0.00 0.00 0.00 69 1014.3
20210617125315 82 80 0.0 6.0 0.00 0.00 0.00 69 1014.4
20210617125115 81 59 2.0 6.0 0.00 0.00 0.00 69 1014.4
20210617124816 81 50 0.0 8.0 0.00 0.00 0.00 70 1014.3
20210617124715 81 57 5.0 8.0 0.00 0.00 0.00 70 1014.4
20210617124616 81 42 5.0 8.0 0.00 0.00 0.00 70 1014.3
20210617124316 81 16 7.0 8.0 0.00 0.00 0.00 71 1014.2
20210617124216 81 43 3.0 8.0 0.00 0.00 0.00 72 1014.2
20210617124116 81 43 0.0 8.0 0.00 0.00 0.00 72 1014.2
20210617124016 81 47 4.0 8.0 0.00 0.00 0.00 72 1014.2
20210617123817 82 39 3.0 9.0 0.00 0.00 0.00 72 1014.1
20210617123715 81 46 3.0 9.0 0.00 0.00 0.00 72 1014.1
20210617123616 81 57 5.0 9.0 0.00 0.00 0.00 72 1014.1
20210617122917 81 11 2.0 9.0 0.00 0.00 0.00 73 1014.0
20210617122816 81 50 2.0 9.0 0.00 0.00 0.00 73 1014.0
20210617122715 81 49 3.0 9.0 0.00 0.00 0.00 73 1014.0
20210617122516 81 84 1.0 9.0 0.00 0.00 0.00 73 1014.0
20210617122416 81 53 6.0 8.0 0.00 0.00 0.00 73 1014.0
20210617122315 81 42 6.0 8.0 0.00 0.00 0.00 73 1014.0
20210617122116 81 28 7.0 8.0 0.00 0.00 0.00 73 1013.9
20210617122016 81 49 2.0 8.0 0.00 0.00 0.00 73 1013.9
20210617121815 81 22 5.0 8.0 0.00 0.00 0.00 73 1013.9
20210617121717 81 21 3.0 8.0 0.00 0.00 0.00 73 1013.9
20210617121315 80 84 7.0 7.0 0.00 0.00 0.00 74 1013.9
20210617121216 80 35 2.0 7.0 0.00 0.00 0.00 74 1014.0
20210617120915 81 74 5.0 7.0 0.00 0.00 0.00 74 1013.9
20210617120716 80 57 5.0 7.0 0.00 0.00 0.00 74 1013.9
20210617120615 80 57 2.0 7.0 0.00 0.00 0.00 74 1013.9
20210617120516 80 43 4.0 7.0 0.00 0.00 0.00 74 1013.9
20210617120215 81 348 1.0 7.0 0.00 0.00 0.00 74 1013.9
20210617115616 81 67 2.0 8.0 0.00 0.00 0.00 74 1013.9
20210617115416 80 43 6.0 6.0 0.00 0.00 0.00 75 1013.9
20210617115215 80 23 0.0 6.0 0.00 0.00 0.00 74 1013.9
20210617115116 80 71 3.0 6.0 0.00 0.00 0.00 74 1013.9
20210617115015 80 26 3.0 6.0 0.00 0.00 0.00 74 1013.8
20210617114817 80 49 2.0 5.0 0.00 0.00 0.00 75 1013.7
20210617114717 80 43 2.0 5.0 0.00 0.00 0.00 75 1013.7
20210617114415 80 50 1.0 6.0 0.00 0.00 0.00 75 1013.7
20210617113717 80 35 0.0 0.0 0.00 0.00 0.00 75 1013.6
20210617113615 80 35 0.0 0.0 0.00 0.00 0.00 75 1013.6
20210617113516 80 35 0.0 0.0 0.00 0.00 0.00 75 1013.6
20210617113416 80 35 0.0 0.0 0.00 0.00 0.00 75 1013.6
20210617113216 80 35 0.0 0.0 0.00 0.00 0.00 75 1013.6
20210617112915 80 35 0.0 0.0 0.00 0.00 0.00 75 1013.5
20210617112716 80 35 0.0 0.0 0.00 0.00 0.00 75 1013.6
20210617112515 80 35 0.0 0.0 0.00 0.00 0.00 75 1013.5
20210617112416 80 35 0.0 0.0 0.00 0.00 0.00 75 1013.5
20210617112315 80 35 0.0 0.0 0.00 0.00 0.00 75 1013.5
20210617112216 80 35 0.0 0.0 0.00 0.00 0.00 75 1013.5
20210617111815 80 35 0.0 3.0 0.00 0.00 0.00 75 1013.5
20210617111716 80 35 0.0 3.0 0.00 0.00 0.00 75 1013.5
20210617111516 80 35 0.0 3.0 0.00 0.00 0.00 75 1013.5
20210617111116 80 35 0.0 5.0 0.00 0.00 0.00 75 1013.5
20210617110816 80 66 3.0 0.0 0.00 0.00 0.00 75 1013.5
20210617110716 80 30 0.0 0.0 0.00 0.00 0.00 75 1013.5
20210617110516 80 30 0.0 0.0 0.00 0.00 0.00 75 1013.4
20210617110416 80 30 0.0 0.0 0.00 0.00 0.00 75 1013.4
20210617110316 80 30 0.0 0.0 0.00 0.00 0.00 74 1013.4
20210617110215 80 30 0.0 0.0 0.00 0.00 0.00 74 1013.4
20210617110015 80 30 0.0 0.0 0.00 0.00 0.00 74 1013.4
20210617105716 80 30 0.0 4.0 0.00 0.00 0.00 74 1013.3
20210617105416 80 30 0.0 5.0 0.00 0.00 0.00 74 1013.3
20210617105316 80 53 1.0 5.0 0.00 0.00 0.00 74 1013.3
20210617105116 80 67 2.0 5.0 0.00 0.00 0.00 73 1013.3
20210617105017 80 54 2.0 5.0 0.00 0.00 0.00 73 1013.3
20210617104916 80 52 2.0 9.0 0.00 0.00 0.00 73 1013.2
20210617104716 80 52 1.0 9.0 0.00 0.00 0.00 73 1013.2
20210617104516 80 56 4.0 9.0 0.00 0.00 0.00 73 1013.2
20210617104415 80 61 2.0 8.0 0.00 0.00 0.00 73 1013.2
20210617104317 80 87 5.0 8.0 0.00 0.00 0.00 73 1013.2
20210617104215 80 56 4.0 8.0 0.00 0.00 0.00 72 1013.2
20210617104116 80 53 4.0 8.0 0.00 0.00 0.00 72 1013.3
20210617104016 80 56 4.0 8.0 0.00 0.00 0.00 72 1013.2
20210617103916 80 66 5.0 7.0 0.00 0.00 0.00 72 1013.3
20210617103516 80 37 4.0 7.0 0.00 0.00 0.00 72 1013.2
20210617103215 80 50 4.0 6.0 0.00 0.00 0.00 72 1013.2
20210617102816 80 59 2.0 7.0 0.00 0.00 0.00 72 1013.3
20210617102617 80 59 4.0 7.0 0.00 0.00 0.00 72 1013.2
20210617102516 80 42 4.0 7.0 0.00 0.00 0.00 72 1013.2
20210617102316 80 50 4.0 7.0 0.00 0.00 0.00 72 1013.2
20210617102215 80 21 2.0 7.0 0.00 0.00 0.00 72 1013.2
20210617102116 80 60 3.0 7.0 0.00 0.00 0.00 72 1013.2
20210617101716 80 81 3.0 7.0 0.00 0.00 0.00 73 1013.2
20210617101416 80 49 7.0 7.0 0.00 0.00 0.00 73 1013.1
20210617101317 79 82 4.0 7.0 0.00 0.00 0.00 73 1013.1
20210617101215 79 47 0.0 7.0 0.00 0.00 0.00 73 1013.1
20210617101015 80 64 1.0 7.0 0.00 0.00 0.00 73 1013.1
20210617100616 80 45 5.0 6.0 0.00 0.00 0.00 73 1013.1
20210617100316 79 66 4.0 6.0 0.00 0.00 0.00 73 1013.1
20210617100216 79 57 2.0 6.0 0.00 0.00 0.00 73 1013.1
20210617100115 80 59 2.0 6.0 0.00 0.00 0.00 73 1013.1
20210617095616 79 64 2.0 8.0 0.00 0.00 0.00 73 1013.1
20210617095516 79 43 6.0 8.0 0.00 0.00 0.00 73 1013.1
20210617095315 80 70 3.0 6.0 0.00 0.00 0.00 73 1013.1
20210617095216 80 84 2.0 6.0 0.00 0.00 0.00 73 1013.0
20210617095115 79 42 5.0 6.0 0.00 0.00 0.00 73 1013.1
20210617095016 79 64 5.0 6.0 0.00 0.00 0.00 73 1013.0
20210617094915 79 40 2.0 6.0 0.00 0.00 0.00 73 1013.0
20210617094816 80 46 4.0 6.0 0.00 0.00 0.00 73 1013.0
20210617094616 80 66 5.0 6.0 0.00 0.00 0.00 73 1013.0
20210617094216 79 97 0.0 0.0 0.00 0.00 0.00 73 1012.9
20210617093515 79 97 0.0 7.0 0.00 0.00 0.00 73 1012.8
20210617093416 79 35 7.0 7.0 0.00 0.00 0.00 73 1012.7
20210617093316 79 63 1.0 7.0 0.00 0.00 0.00 72 1012.7
20210617093215 79 61 4.0 7.0 0.00 0.00 0.00 72 1012.7
20210617093015 79 78 2.0 7.0 0.00 0.00 0.00 72 1012.7
20210617092616 79 39 4.0 6.0 0.00 0.00 0.00 72 1012.7
20210617092416 79 50 3.0 7.0 0.00 0.00 0.00 72 1012.7
20210617092116 79 47 6.0 7.0 0.00 0.00 0.00 71 1012.6
20210617092016 79 56 2.0 7.0 0.00 0.00 0.00 71 1012.6
20210617091716 79 70 3.0 6.0 0.00 0.00 0.00 71 1012.6
20210617091616 79 53 2.0 6.0 0.00 0.00 0.00 71 1012.6
20210617091215 79 63 1.0 8.0 0.00 0.00 0.00 71 1012.5
20210617091016 79 94 3.0 8.0 0.00 0.00 0.00 71 1012.5
20210617090916 79 82 3.0 7.0 0.00 0.00 0.00 71 1012.6
20210617090516 79 40 4.0 7.0 0.00 0.00 0.00 71 1012.7
20210617090416 79 60 2.0 8.0 0.00 0.00 0.00 71 1012.6
20210617090016 79 53 2.0 8.0 0.00 0.00 0.00 71 1012.7
20210617085915 79 82 2.0 8.0 0.00 0.00 0.00 71 1012.7
20210617085715 79 80 3.0 8.0 0.00 0.00 0.00 71 1012.7
20210617085616 79 59 7.0 8.0 0.00 0.00 0.00 71 1012.7
20210617085416 79 73 0.0 9.0 0.00 0.00 0.00 71 1012.7
20210617085316 79 73 0.0 9.0 0.00 0.00 0.00 71 1012.6
20210617085116 79 75 3.0 9.0 0.00 0.00 0.00 72 1012.7
20210617084916 79 67 6.0 10.0 0.00 0.00 0.00 73 1012.6
20210617084815 79 50 6.0 10.0 0.00 0.00 0.00 73 1012.6
20210617084616 79 54 1.0 10.0 0.00 0.00 0.00 73 1012.6
20210617084516 79 53 5.0 10.0 0.00 0.00 0.00 74 1012.6
20210617084316 79 33 6.0 7.0 0.00 0.00 0.00 75 1012.6
20210617084216 79 57 5.0 7.0 0.00 0.00 0.00 75 1012.6
20210617083717 79 78 0.0 7.0 0.00 0.00 0.00 75 1012.6
20210617083616 79 78 0.0 7.0 0.00 0.00 0.00 76 1012.7
20210617083516 79 78 0.0 7.0 0.00 0.00 0.00 76 1012.6
20210617083217 79 53 0.0 8.0 0.00 0.00 0.00 76 1012.7
20210617083016 79 68 1.0 8.0 0.00 0.00 0.00 76 1012.7
20210617082816 79 52 0.0 8.0 0.00 0.00 0.00 75 1012.7
20210617082715 79 67 5.0 8.0 0.00 0.00 0.00 75 1012.8
20210617082616 79 49 0.0 8.0 0.00 0.00 0.00 75 1012.8
20210617082515 79 49 0.0 8.0 0.00 0.00 0.00 75 1012.7
20210617082417 79 49 0.0 8.0 0.00 0.00 0.00 75 1012.7
20210617082217 79 35 5.0 8.0 0.00 0.00 0.00 75 1012.7
20210617081816 79 60 1.0 8.0 0.00 0.00 0.00 75 1012.6
20210617081515 79 68 4.0 8.0 0.00 0.00 0.00 75 1012.7
20210617081316 79 60 3.0 8.0 0.00 0.00 0.00 75 1012.7
20210617081015 79 49 0.0 8.0 0.00 0.00 0.00 75 1012.7
20210617080815 79 49 0.0 10.0 0.00 0.00 0.00 75 1012.6
20210617080716 79 52 7.0 10.0 0.00 0.00 0.00 76 1012.6
20210617080615 79 25 0.0 10.0 0.00 0.00 0.00 76 1012.6
20210617080516 79 25 0.0 10.0 0.00 0.00 0.00 76 1012.6
20210617080415 79 33 0.0 7.0 0.00 0.00 0.00 75 1012.6
20210617075716 79 50 4.0 10.0 0.00 0.00 0.00 76 1012.6
20210617075616 79 49 0.0 10.0 0.00 0.00 0.00 76 1012.6
20210617075216 79 57 0.0 8.0 0.00 0.00 0.00 76 1012.6
20210617074716 79 47 3.0 8.0 0.00 0.00 0.00 76 1012.6
20210617074615 78 23 8.0 8.0 0.00 0.00 0.00 76 1012.7
20210617074516 78 30 0.0 8.0 0.00 0.00 0.00 76 1012.6
20210617074416 78 30 0.0 8.0 0.00 0.00 0.00 76 1012.6
20210617074315 79 30 0.0 8.0 0.00 0.00 0.00 76 1012.6
20210617074216 78 30 0.0 8.0 0.00 0.00 0.00 76 1012.6
20210617073816 78 39 0.0 4.0 0.00 0.00 0.00 76 1012.7
20210617073617 78 40 3.0 4.0 0.00 0.00 0.00 76 1012.7
20210617073516 79 49 0.0 4.0 0.00 0.00 0.00 76 1012.7
20210617073117 78 19 2.0 0.0 0.00 0.00 0.00 76 1012.8
20210617072616 78 63 0.0 0.0 0.00 0.00 0.00 76 1013.0
20210617072215 78 63 0.0 0.0 0.00 0.00 0.00 76 1013.0
20210617071717 78 63 0.0 0.0 0.00 0.00 0.00 76 1013.0
20210617071516 78 63 0.0 0.0 0.00 0.00 0.00 76 1013.0
20210617071115 78 63 0.0 6.0 0.00 0.00 0.00 76 1013.0
20210617071016 78 63 0.0 6.0 0.00 0.00 0.00 76 1013.0
20210617070817 78 63 1.0 5.0 0.00 0.00 0.00 76 1013.0
20210617070715 78 18 0.0 5.0 0.00 0.00 0.00 76 1013.0
20210617070616 78 50 3.0 5.0 0.00 0.00 0.00 76 1013.0
20210617070216 78 61 0.0 6.0 0.00 0.00 0.00 76 1013.1
20210617070016 78 61 0.0 6.0 0.00 0.00 0.00 76 1013.1
20210617065915 78 61 0.0 7.0 0.00 0.00 0.00 76 1013.1
20210617065515 78 37 0.0 7.0 0.00 0.00 0.00 76 1013.1
20210617065416 78 52 0.0 9.0 0.00 0.00 0.00 76 1013.2
20210617065316 78 43 0.0 9.0 0.00 0.00 0.00 76 1013.2
20210617064916 78 43 0.0 6.0 0.00 0.00 0.00 76 1013.3
20210617064616 78 47 6.0 6.0 0.00 0.00 0.00 77 1013.2
20210617064115 78 21 0.0 4.0 0.00 0.00 0.00 77 1013.3
20210617064016 78 21 0.0 4.0 0.00 0.00 0.00 77 1013.3
20210617063617 78 19 0.0 8.0 0.00 0.00 0.00 77 1013.3
20210617063516 78 19 0.0 8.0 0.00 0.00 0.00 77 1013.3
20210617063416 78 59 3.0 8.0 0.00 0.00 0.00 77 1013.4
20210617063216 78 57 0.0 8.0 0.00 0.00 0.00 77 1013.4
20210617063116 78 35 4.0 8.0 0.00 0.00 0.00 77 1013.4
20210617063016 78 54 0.0 8.0 0.00 0.00 0.00 77 1013.5
20210617062816 78 26 4.0 10.0 0.00 0.00 0.00 77 1013.5
20210617062716 78 19 6.0 10.0 0.00 0.00 0.00 77 1013.6
20210617062516 78 49 6.0 10.0 0.00 0.00 0.00 77 1013.7
20210617062416 78 59 8.0 8.0 0.00 0.00 0.00 77 1013.7
20210617062315 78 46 0.0 8.0 0.00 0.00 0.00 77 1013.7
20210617062117 78 30 0.0 8.0 0.00 0.00 0.00 77 1013.7
20210617061916 78 37 4.0 10.0 0.00 0.00 0.00 77 1013.8
20210617061816 78 46 6.0 10.0 0.00 0.00 0.00 78 1013.8
20210617061516 78 60 4.0 10.0 0.00 0.00 0.00 78 1013.7
20210617061415 78 25 0.0 9.0 0.00 0.00 0.00 78 1013.7
20210617061217 78 26 1.0 9.0 0.00 0.00 0.00 78 1013.8
20210617061115 78 59 5.0 9.0 0.00 0.00 0.00 78 1013.8
20210617060816 78 21 4.0 7.0 0.00 0.00 0.00 78 1013.8
20210617060416 78 54 5.0 9.0 0.00 0.00 0.00 78 1013.8
20210617060316 78 49 0.0 9.0 0.00 0.00 0.00 78 1013.8
20210617060016 78 11 0.0 9.0 0.00 0.00 0.00 78 1013.9
20210617055816 78 53 3.0 10.0 0.00 0.00 0.00 78 1013.9
20210617055716 78 36 4.0 10.0 0.00 0.00 0.00 78 1014.0
20210617055516 78 53 0.0 10.0 0.00 0.00 0.00 78 1014.0
20210617055417 78 53 0.0 7.0 0.00 0.00 0.00 78 1014.0
20210617055216 78 53 0.0 7.0 0.00 0.00 0.00 78 1014.0
20210617055116 78 46 6.0 7.0 0.00 0.00 0.00 78 1014.0
20210617055015 78 28 0.0 7.0 0.00 0.00 0.00 78 1014.1
20210617054916 78 67 5.0 9.0 0.00 0.00 0.00 78 1014.1
20210617054816 78 12 0.0 9.0 0.00 0.00 0.00 78 1014.1
20210617054315 78 82 4.0 9.0 0.00 0.00 0.00 78 1014.3
20210617053616 78 52 3.0 7.0 0.00 0.00 0.00 79 1014.3
20210617053516 78 43 5.0 7.0 0.00 0.00 0.00 79 1014.4
20210617053315 78 15 3.0 7.0 0.00 0.00 0.00 79 1014.3
20210617053015 78 23 0.0 7.0 0.00 0.00 0.00 79 1014.4
20210617052816 78 23 0.0 9.0 0.00 0.00 0.00 79 1014.4
20210617052717 78 74 4.0 9.0 0.00 0.00 0.00 79 1014.5
20210617052515 78 77 4.0 9.0 0.00 0.00 0.00 78 1014.4
20210617052316 78 77 5.0 8.0 0.00 0.00 0.00 78 1014.4
20210617052017 78 32 5.0 8.0 0.00 0.00 0.00 78 1014.5
20210617051915 78 47 1.0 6.0 0.00 0.00 0.00 78 1014.5
20210617051516 78 56 0.0 6.0 0.00 0.00 0.00 78 1014.5
20210617051216 78 14 0.0 9.0 0.00 0.00 0.00 78 1014.5
20210617051116 78 21 0.0 9.0 0.00 0.00 0.00 78 1014.4
20210617051016 78 19 4.0 9.0 0.00 0.00 0.00 77 1014.4
20210617050915 78 8 0.0 2.0 0.00 0.00 0.00 77 1014.5
20210617050816 78 47 2.0 2.0 0.00 0.00 0.00 77 1014.5
20210617050616 78 8 0.0 2.0 0.00 0.00 0.00 76 1014.5
20210617050416 78 8 0.0 5.0 0.00 0.00 0.00 76 1014.5
20210617045816 79 32 0.0 6.0 0.00 0.00 0.00 76 1014.7
20210617045615 78 30 0.0 6.0 0.00 0.00 0.00 76 1014.7
20210617045216 78 358 3.0 6.0 0.00 0.00 0.00 76 1014.7
20210617045115 78 9 0.0 6.0 0.00 0.00 0.00 77 1014.7
20210617044917 78 26 2.0 0.0 0.00 0.00 0.00 77 1014.7
20210617044716 78 9 0.0 0.0 0.00 0.00 0.00 77 1014.8
20210617044517 78 19 0.0 0.0 0.00 0.00 0.00 77 1014.8
20210617044416 78 19 0.0 4.0 0.00 0.00 0.00 77 1014.9
20210617044216 78 19 0.0 4.0 0.00 0.00 0.00 77 1014.9
20210617044116 79 19 0.0 4.0 0.00 0.00 0.00 77 1014.9
20210617043915 79 19 0.0 0.0 0.00 0.00 0.00 77 1015.0
20210617043816 78 19 0.0 0.0 0.00 0.00 0.00 77 1015.0
20210617043616 78 33 0.0 0.0 0.00 0.00 0.00 77 1015.1
20210617043515 78 33 0.0 0.0 0.00 0.00 0.00 77 1015.1
20210617043315 78 33 0.0 0.0 0.00 0.00 0.00 77 1015.1
20210617043116 78 33 0.0 0.0 0.00 0.00 0.00 77 1015.2
20210617042716 79 33 0.0 3.0 0.00 0.00 0.00 77 1015.2
20210617042515 78 33 0.0 3.0 0.00 0.00 0.00 77 1015.3
20210617042316 78 22 0.0 0.0 0.00 0.00 0.00 77 1015.3
20210617042116 78 22 0.0 0.0 0.00 0.00 0.00 77 1015.3
20210617042017 78 22 0.0 0.0 0.00 0.00 0.00 78 1015.3
20210617041815 78 22 0.0 0.0 0.00 0.00 0.00 78 1015.4
20210617041516 79 22 0.0 0.0 0.00 0.00 0.00 78 1015.4
20210617041216 78 22 0.0 0.0 0.00 0.00 0.00 78 1015.3
20210617041016 78 22 0.0 0.0 0.00 0.00 0.00 78 1015.4
20210617040915 79 22 0.0 0.0 0.00 0.00 0.00 78 1015.3
20210617040615 78 22 0.0 0.0 0.00 0.00 0.00 78 1015.3
20210617040416 79 22 0.0 0.0 0.00 0.00 0.00 78 1015.4
20210617040116 78 22 0.0 0.0 0.00 0.00 0.00 77 1015.4
20210617040015 78 22 0.0 0.0 0.00 0.00 0.00 77 1015.4
20210617035916 79 22 0.0 0.0 0.00 0.00 0.42 78 1015.4
20210617035715 78 22 0.0 0.0 0.00 0.00 0.42 78 1015.5
20210617035515 78 22 0.0 0.0 0.00 0.00 0.42 77 1015.5
20210617035416 79 22 0.0 0.0 0.00 0.00 0.42 77 1015.5
20210617035016 79 22 0.0 0.0 0.00 0.00 0.42 78 1015.4
20210617034816 79 22 0.0 0.0 0.00 0.00 0.42 78 1015.4
20210617034116 79 22 0.0 6.0 0.00 0.00 0.42 78 1015.3
20210617033915 79 22 0.0 5.0 0.00 0.00 0.42 78 1015.3
20210617033516 79 66 0.0 5.0 0.00 0.00 0.42 78 1015.3
20210617033416 79 23 0.0 4.0 0.00 0.00 0.42 78 1015.3
20210617033315 79 23 0.0 4.0 0.00 0.00 0.42 78 1015.3
20210617032716 79 32 0.0 5.0 0.00 0.00 0.42 78 1015.2
20210617032516 79 32 0.0 5.0 0.00 0.00 0.42 78 1015.2
20210617032316 78 11 0.0 8.0 0.00 0.00 0.42 78 1015.2
20210617032015 79 11 0.0 8.0 0.00 0.00 0.42 78 1015.2
20210617031516 79 59 1.0 7.0 0.00 0.00 0.42 78 1015.3
20210617031416 79 43 7.0 8.0 0.00 0.00 0.42 77 1015.3
20210617031116 79 49 0.0 8.0 0.00 0.00 0.42 77 1015.3
20210617031016 79 26 2.0 8.0 0.00 0.00 0.42 77 1015.3
20210617030816 78 358 0.0 6.0 0.00 0.00 0.42 77 1015.4
20210617030715 78 22 5.0 6.0 0.00 0.00 0.42 77 1015.3
20210617030315 79 63 0.0 9.0 0.00 0.00 0.42 78 1015.3
20210617030116 78 78 1.0 9.0 0.00 0.00 0.42 78 1015.3
20210617025915 79 0 0.0 3.0 0.00 0.00 0.42 78 1015.4
20210617025816 79 45 7.0 3.0 0.00 0.00 0.42 79 1015.4
20210617025716 79 9 0.0 3.0 0.00 0.00 0.42 79 1015.4
20210617025315 79 345 0.0 8.0 0.00 0.00 0.42 79 1015.3
20210617025217 79 1 0.0 8.0 0.00 0.00 0.42 79 1015.3
20210617025115 79 1 0.0 8.0 0.00 0.00 0.42 79 1015.4
20210617024916 79 5 1.0 7.0 0.00 0.00 0.42 80 1015.4
20210617024517 79 348 2.0 7.0 0.00 0.00 0.42 80 1015.5
20210617024217 79 329 0.0 10.0 0.00 0.00 0.42 79 1015.6
20210617023716 78 5 0.0 0.0 0.00 0.00 0.42 78 1015.5
20210617023616 79 5 0.0 0.0 0.00 0.00 0.42 78 1015.5
20210617023417 79 5 0.0 5.0 0.00 0.00 0.42 78 1015.5
20210617023316 79 5 0.0 5.0 0.00 0.00 0.42 79 1015.5
20210617023216 79 5 0.0 5.0 0.00 0.00 0.42 79 1015.5
20210617023116 79 5 0.0 5.0 0.00 0.00 0.42 79 1015.5
20210617023015 79 5 0.0 5.0 0.00 0.00 0.42 79 1015.5
20210617022916 79 5 0.0 10.0 0.00 0.00 0.42 79 1015.6
20210617022716 79 5 0.0 10.0 0.00 0.00 0.42 79 1015.6
20210617022417 79 22 3.0 0.0 0.00 0.00 0.42 80 1015.6
20210617022116 79 19 3.0 0.0 0.00 0.00 0.42 80 1015.6
20210617021716 78 68 0.0 5.0 0.00 0.00 0.42 79 1015.7
20210617021616 79 68 0.0 5.0 0.00 0.00 0.42 78 1015.6
20210617021515 78 68 0.0 5.0 0.00 0.00 0.42 77 1015.6
20210617021316 78 68 0.0 5.0 0.00 0.00 0.42 76 1015.6
20210617021015 78 11 1.0 5.0 0.00 0.00 0.42 75 1015.5
20210617020916 78 91 0.0 4.0 0.00 0.00 0.42 75 1015.5
20210617020715 78 334 0.0 4.0 0.00 0.00 0.42 74 1015.5
20210617020616 78 334 0.0 4.0 0.00 0.00 0.42 74 1015.4
20210617020517 78 334 0.0 4.0 0.00 0.00 0.42 74 1015.4
20210617020416 78 334 0.0 0.0 0.00 0.00 0.42 75 1015.4
20210617020316 78 334 0.0 0.0 0.00 0.00 0.42 75 1015.4
20210617015915 78 11 0.0 0.0 0.00 0.00 0.42 75 1015.5
20210617015817 78 11 0.0 0.0 0.00 0.00 0.42 75 1015.5
20210617015615 78 11 0.0 0.0 0.00 0.00 0.42 75 1015.5
20210617015416 78 11 0.0 0.0 0.00 0.00 0.42 75 1015.5
20210617015116 78 11 0.0 0.0 0.00 0.00 0.42 75 1015.5
20210617014917 78 11 0.0 0.0 0.00 0.00 0.42 75 1015.5
20210617014415 78 11 0.0 6.0 0.00 0.00 0.42 75 1015.5
20210617014317 78 11 0.0 6.0 0.00 0.00 0.42 75 1015.5
20210617013816 78 11 0.0 5.0 0.00 0.00 0.42 75 1015.3
20210617013016 79 331 0.0 0.0 0.00 0.00 0.42 74 1015.4
20210617012815 79 331 0.0 0.0 0.00 0.00 0.42 74 1015.4
20210617012716 79 331 0.0 0.0 0.00 0.00 0.42 74 1015.4
20210617012317 79 331 0.0 0.0 0.00 0.00 0.42 75 1015.5
20210617012217 79 331 0.0 0.0 0.00 0.00 0.42 75 1015.5
20210617012016 79 331 0.0 0.0 0.00 0.00 0.42 75 1015.5
20210617011915 79 331 0.0 0.0 0.00 0.00 0.42 75 1015.4
20210617011816 79 331 0.0 0.0 0.00 0.00 0.42 75 1015.4
20210617011316 79 331 0.0 0.0 0.00 0.00 0.41 75 1015.5
20210617010915 79 331 0.0 0.0 0.00 0.00 0.41 75 1015.5
20210617010815 79 331 0.0 0.0 0.00 0.00 0.41 75 1015.5
20210617010716 79 331 0.0 0.0 0.00 0.00 0.41 75 1015.5
20210617010615 79 331 0.0 0.0 0.00 0.00 0.41 75 1015.5
20210617010516 79 331 0.0 0.0 0.00 0.00 0.41 75 1015.4
20210617010316 79 331 0.0 0.0 0.00 0.00 0.41 75 1015.5
20210617010116 79 331 0.0 0.0 0.00 0.00 0.41 75 1015.5
20210617005616 79 331 0.0 0.0 0.00 0.00 0.40 75 1015.2
20210617005516 79 331 0.0 0.0 0.00 0.00 0.40 75 1015.2
20210617005216 79 331 0.0 0.0 0.00 0.00 0.40 74 1015.1
20210617004915 79 331 0.0 0.0 0.00 0.00 0.40 74 1015.0
20210617004616 79 331 0.0 0.0 0.00 0.00 0.40 74 1014.8
20210617004416 79 331 0.0 0.0 0.00 0.00 0.40 74 1014.7
20210617004216 79 331 0.0 0.0 0.00 0.00 0.40 75 1014.7
20210617004116 79 331 0.0 0.0 0.00 0.00 0.40 75 1014.6
20210617004016 79 331 0.0 0.0 0.00 0.00 0.40 75 1014.6
20210617003915 79 331 0.0 0.0 0.00 0.00 0.40 74 1014.6
20210617003817 79 331 0.0 0.0 0.00 0.00 0.40 74 1014.5
20210617003715 79 331 0.0 0.0 0.00 0.00 0.40 74 1014.3
20210617003616 79 331 0.0 0.0 0.00 0.00 0.40 74 1014.3
20210617003315 79 331 0.0 0.0 0.00 0.00 0.40 74 1014.3
20210617003216 79 331 0.0 0.0 0.00 0.00 0.40 74 1014.3
20210617003115 79 331 0.0 0.0 0.00 0.00 0.40 74 1014.3
20210617002716 79 331 0.0 0.0 0.00 0.00 0.40 73 1014.2
20210617002616 79 331 0.0 0.0 0.00 0.00 0.40 73 1014.2
20210617002516 79 331 0.0 0.0 0.00 0.00 0.40 73 1014.2
20210617002316 79 331 0.0 4.0 0.00 0.00 0.40 73 1014.0
20210617002216 79 331 0.0 4.0 0.00 0.00 0.40 73 1014.0
20210617002115 79 331 0.0 4.0 0.00 0.00 0.40 73 1014.0